ARG1488 SAAR-SBFI

Flight info

Callsign ARG1488
Flight time N/A
Altitude 35000
Route PAR UT682 POS UP779 IGU
Aircraft B732/M-SDFGHRWY/S

Departure

Time N/A
Airport Rosario Islas Malvinas International Airport (SAAR)

Arrival

Time 2026-04-21 03:07
Airport Cataratas International Airport (SBFI)
Time Latitude Longitude Altitude Speed Heading
2026-04-21 03:02 -25.45426 -54.66683 4315 ft 219 kts 136°
2026-04-21 03:02 -25.46511 -54.65524 3994 ft 215 kts 129°
2026-04-21 03:02 -25.47527 -54.64307 3645 ft 211 kts 128°
2026-04-21 03:02 -25.48450 -54.63156 3625 ft 190 kts 125°
2026-04-21 03:03 -25.49288 -54.62085 3474 ft 177 kts 125°
2026-04-21 03:03 -25.50052 -54.61092 3334 ft 160 kts 124°
2026-04-21 03:03 -25.50762 -54.60171 3060 ft 156 kts 123°
2026-04-21 03:03 -25.51419 -54.59271 2828 ft 141 kts 123°
2026-04-21 03:04 -25.52020 -54.58437 2641 ft 135 kts 124°
2026-04-21 03:04 -25.52605 -54.57631 2467 ft 134 kts 127°
2026-04-21 03:04 -25.53188 -54.56822 2281 ft 133 kts 127°
2026-04-21 03:04 -25.53787 -54.56022 2094 ft 132 kts 128°
2026-04-21 03:05 -25.54388 -54.55256 1937 ft 130 kts 130°
2026-04-21 03:05 -25.55005 -54.54509 1760 ft 130 kts 131°
2026-04-21 03:05 -25.55595 -54.53760 1599 ft 129 kts 133°
2026-04-21 03:05 -25.56205 -54.53024 1449 ft 126 kts 131°
2026-04-21 03:06 -25.56759 -54.52268 1309 ft 126 kts 129°
2026-04-21 03:06 -25.57345 -54.51547 1151 ft 125 kts 139°
2026-04-21 03:06 -25.57917 -54.50827 1043 ft 125 kts 133°
2026-04-21 03:06 -25.58486 -54.50103 935 ft 129 kts 137°
2026-04-21 03:07 -25.59115 -54.49323 747 ft 134 kts 133°
2026-04-21 03:07 -25.59654 -54.48640 778 ft 91 kts 134°
2026-04-21 03:07 -25.59890 -54.48336 786 ft 10 kts 133°
2026-04-21 03:07 -25.59952 -54.48298 785 ft 9 kts 144°
2026-04-21 03:08 -25.59951 -54.48281 785 ft 2 kts 328°
2026-04-21 03:08 -25.59909 -54.48323 785 ft 12 kts 314°
2026-04-21 03:08 -25.59851 -54.48394 785 ft 12 kts 311°
2026-04-21 03:08 -25.59807 -54.48455 784 ft 6 kts 291°
2026-04-21 03:09 -25.59819 -54.48504 783 ft 7 kts 221°
2026-04-21 03:09 -25.59858 -54.48542 783 ft 7 kts 244°
2026-04-21 03:09 -25.59833 -54.48591 782 ft 8 kts 314°
2026-04-21 03:09 -25.59791 -54.48641 780 ft 10 kts 313°
2026-04-21 03:10 -25.59738 -54.48705 778 ft 12 kts 312°
2026-04-21 03:10 -25.59704 -54.48748 776 ft 3 kts 311°
2026-04-21 03:10 -25.59700 -54.48777 776 ft 4 kts 223°
2026-04-21 03:10 -25.59725 -54.48799 776 ft 4 kts 221°
2026-04-21 03:11 -25.59733 -54.48807 776 ft 0 kts 221°